Regional Weather Roundup
Issued by NWS

Home | Current Version | Previous Version | Text Only | Print | Product List | Glossary Off
Versions: 1 2 3 4 5 6 7 8 9 10 11 12 13 14 15 16 17 18 19 20 21 22 23 24 25 26 27 28 29 30 31 32 33 34 35 36 37 38 39 40 41 42 43 44 45 46 47 48 49 50

000
ASUS43 KMKX 060810
RWRWI

WISCONSIN REGIONAL WEATHER ROUNDUP
NATIONAL WEATHER SERVICE MILWAUKEE/SULLIVAN WI
200 AM CST FRI MAR 06 2015

NOTE: "FAIR" INDICATES FEW OR NO CLOUDS BELOW 12,000 FEET WITH NO
SIGNIFICANT WEATHER AND/OR OBSTRUCTIONS TO VISIBILITY.

WIZ001-002-006>008-014>016-023>028-060900-
NORTHWEST WISCONSIN

CITY           SKY/WX    TMP DP  RH WIND       PRES   REMARKS
SUPERIOR ARPT  CLEAR      8   0  69 SW15      30.14F WCI -10
ASHLAND        CLEAR      6  -3  66 S14G22    30.17F WCI -11
HAYWARD        PTCLDY     4  -3  73 S9        30.18F WCI -10
SIREN          PTCLDY     9   1  71 S8        30.17F WCI  -4
CUMBERLAND     PTCLDY    -4  -8  84 S7        30.19F WCI -18
RICE LAKE      PTCLDY     1  -4  80 SE8       30.23F WCI -14
CHETEK         PTCLDY    -3  -7  83 E3        30.24F
LADYSMITH      PTCLDY     0  -6  78 S5        30.25F WCI -10
EAU CLAIRE     PTCLDY     2  -5  72 S7        30.27F WCI -11
MENOMONIE      PTCLDY     1  -5  78 E3        30.26F
NEW RICHMOND   MOCLDY     8   0  72 S10       30.21F WCI  -7
OSCEOLA        CLOUDY     8   2  75 S9        30.23F WCI  -5
$$

WIZ003>005-009-010-017-018-060900-
NORTH CENTRAL WISCONSIN

CITY           SKY/WX    TMP DP  RH WIND       PRES   REMARKS
MANITOWISH WTR PTCLDY    -1  -7  75 S8        30.16F WCI -15
ARBOR VITAE    PTCLDY    -1  -8  73 S5        30.17F WCI -11
WOODRUFF       PTCLDY    -1  -8  73 S5        30.17F WCI -11
RHINELANDER    PTCLDY    -2 -10  69 SW7       30.20F WCI -15
EAGLE RIVER    PTCLDY    -2 -11  66 CALM      30.18F
LAND O LAKES   PTCLDY    -2  -8  74 S3        30.17F
PHILLIPS       PTCLDY    -1  -7  78 S7        30.20F WCI -15
TOMAHAWK       MOCLDY    -6 -11  79 CALM      30.23F
MEDFORD        PTCLDY    -3  -8  79 S7        30.23F WCI -16
MERRILL        MOCLDY   -14 -19  77 CALM      30.25F
$$

WIZ029-030-035-036-043>047-060900-
CENTRAL WISCONSIN

CITY           SKY/WX    TMP DP  RH WIND       PRES   REMARKS
WAUSAU         PTCLDY     0  -8  69 CALM      30.27F
MOSINEE        MOCLDY    -2  -8  78 S9        30.29F WCI -18
MARSHFIELD     PTCLDY     0  -7  72 SW6       30.28F WCI -12
STEVENS POINT  MOCLDY    -3  -9  77 S6        30.32F WCI -15
WAUPACA        MOCLDY     2  -7  65 S3        30.37F
WAUTOMA        MOCLDY     0  -9  65 CALM      30.38F
WISC RAPIDS    MOCLDY     0  -8  69 S6        30.34F WCI -12
CAMP DOUGLAS   MOCLDY     2  -4  77 S6        30.34F WCI  -9
$$

WIZ011>013-019>022-031-037>040-048>050-060900-
NORTHEAST WISCONSIN

CITY           SKY/WX    TMP DP  RH WIND       PRES   REMARKS
ANTIGO         PTCLDY    -7 -13  76 SW8       30.24F WCI -23
SHAWANO        PTCLDY     5  -6  61 CALM      30.34F
OCONTO         PTCLDY    -4 -11  72 CALM      30.36F
STURGEON BAY   PTCLDY     7  -8  51 SW9       30.36F WCI  -7
GREEN BAY      PTCLDY     3  -7  63 SW5       30.37F WCI  -6
MANITOWOC      PTCLDY     3  -4  72 SW5       30.40F WCI  -6
APPLETON       PTCLDY     3  -8  60 SW8       30.36F WCI -10
CLINTONVILLE   PTCLDY     1  -8  66 S6        30.35F WCI -10
OSHKOSH        PTCLDY     2  -7  66 S6        30.39S WCI  -9
$$

WIZ032>034-041-042-053>061-060900-
SOUTHWEST WISCONSIN

CITY           SKY/WX    TMP DP  RH WIND       PRES   REMARKS
LA CROSSE      PTCLDY     5  -4  66 S13       30.37F WCI -12
SPARTA         PTCLDY     2  -4  73 S3        30.36F
VIROQUA        PTCLDY     1  -5  77 S8        30.32F WCI -14
BOSCOBEL       PTCLDY    -8 -13  78 CALM      30.42F
PRAIRIE DU CHI PTCLDY    -2  -7  76 SE3       30.42F
PLATTEVILLE    MOCLDY    -2  -8  76 SE8       30.40F WCI -17
$$

WIZ056-057-062-063-064-067-068-060900-
SOUTH CENTRAL WISCONSIN

CITY           SKY/WX    TMP DP  RH WIND       PRES   REMARKS
REEDSBURG      MOCLDY     2  -5  72 S3        30.38F
BARABOO/DELLS  MOCLDY     2  -6  69 SW7       30.37F WCI -10
LONE ROCK      MOCLDY    -5 -11  75 CALM      30.43F
MINERAL POINT  MOCLDY     1  -6  71 S6        30.37F WCI -10
MADISON        MOCLDY     3  -6  66 SW5       30.42F WCI  -6
MIDDLETON      MOCLDY     3  -6  66 S3        30.41F
WATERTOWN      MOCLDY     0  -7  74 S5        30.42F WCI -10
MONROE         PTCLDY     0  -6  78 S10       30.40F WCI -17
JANESVILLE     MOCLDY     1  -6  71 S3        30.45F
$$

WIZ051-052-058>065-066-070>072-060900-
SOUTHEAST WISCONSIN

CITY           SKY/WX    TMP DP  RH WIND       PRES   REMARKS
MILWAUKEE      PTCLDY     3  -8  60 SW6       30.46S WCI  -8
WAUKESHA       MOCLDY     1  -8  66 SW5       30.44F WCI  -8
MILWAUKEE/TIMM PTCLDY     3  -8  60 S6        30.45F WCI  -8
RACINE         PTCLDY     0  -9  65 SW8       30.48F WCI -14
BURLINGTON     MOCLDY   -10 -15  81 CALM      30.45F
KENOSHA        MOCLDY     1  -7  68 SW7       30.46F WCI -12
FOND DU LAC    FAIR       4  -6  63 SW9       30.40F WCI -10
SHEBOYGAN      PTCLDY     1  -8  66 SW8       30.40F WCI -13
WEST BEND      PTCLDY     1  -8  66 SW5       30.40F WCI  -8
JUNEAU         MOCLDY    -1  -8  72 S8        30.42S WCI -15
$$

LSZ147-162-060900-
LAKE SUPERIOR

STATION/POSITION TIME  TEMP    WIND        PRES    WAVE
                       AIR SEA DIR/SP/G            HT/PER
                 (UTC) (F)     (DEG/KT/KT) (MB)    (FT/S)
DEVILS ISLAND    0800    7     190/  7/ 10 1022.4F
PORT WING        0700    9     190/ 11/ 14 1021.7F
SAXON HARBOR     0700    8     190/  9/ 13 1022.7F
$$

LMZ867-665-643>646-060900-
LAKE MICHIGAN

STATION/POSITION TIME  TEMP    WIND        PRES    WAVE
                       AIR SEA DIR/SP/G            HT/PER
                 (UTC) (F)     (DEG/KT/KT) (MB)    (FT/S)
NORTHPORT PIER   0722    8     250/  5/ 14 1027.4F
SISTER BAY       0628    6     250/ 11/ 12   N/A
KEWAUNEE LAKESHO 0700                      1028.3F
SHEBOYGAN LAKESH 0800    7     230/ 10/ 13 1031.8F
PORT WASHINGTON  0700    6     250/  5/  9 1031.8
MILWAUKEE LAKESH 0700    8     240/ 10/ 13   N/A
KENOSHA   LAKESH 0800    5     240/  6/ 10 1031.8F
$$

TC  - TEMPERATURE IN CELSIUS
VSB - VISIBILITY IN STATUTE MILES
WCI - WIND CHILL INDEX
HX  - HEAT INDEX




USA.gov is the U.S. government's official web portal to all federal, state and local government web resources and services.